Location: Newark
(22.8000°N, 86.1800°E)
Time: 06:44:00
(UTC+00:00)

Hubble Space Telescope - Visible Passes

Search period start: 28 February 2020 00:00
Search period end: 09 March 2020 00:00
Orbit: 536 x 540 km, 28.5° (Epoch: 27 February)

Date Brightness Start Highest point End Pass type
(mag) Time Alt. Az. Time Alt. Az. Time Alt. Az.
28 Feb 1.3 12:47:33 10° WNW 12:51:32 46° N 12:55:06 12° E visible
28 Feb 3.0 14:28:42 10° WNW 14:30:27 24° W 14:30:27 24° W visible
29 Feb 1.1 12:36:55 10° WNW 12:40:57 52° NNE 12:45:00 10° E visible
29 Feb 2.4 14:18:09 10° W 14:20:39 32° W 14:20:39 32° W visible
01 Mar 2.0 14:07:39 10° W 14:10:56 36° SW 14:10:56 36° SW visible
02 Mar 2.2 13:57:13 10° W 14:00:50 29° SSW 14:01:17 29° SSW visible
03 Mar 2.7 13:46:53 10° W 13:50:09 22° SSW 13:51:43 18° S visible
04 Mar 3.2 13:36:44 10° WSW 13:39:28 17° SSW 13:42:12 10° SSE visible
05 Mar 3.4 13:26:55 10° WSW 13:28:46 13° SSW 13:30:37 10° S visible
